Location: *
(48.3833°N, 7.6167°E)
Time: 03:45:03
(UTC+00:00)

Daily predictions for brighter satellites

Satellite Brightness Start Highest point End
(mag) Time Altitude Azimuth Time Altitude Azimuth Time Altitude Azimuth
SL-16 R/B 3.9 00:11:06 33° NNE 00:11:06 33° NNE 00:15:19 10° N
Cosmos 2278 Rocket 4.1 00:22:37 26° NNE 00:22:37 26° NNE 00:25:01 10° NNE
USA 267 4.1 00:18:45 10° NE 00:23:21 44° NNE 00:23:21 44° NNE
CZ-2D R/B 4.4 00:23:28 10° NE 00:25:23 19° NE 00:25:23 19° NE
ATLAS 5 CENTAUR R/B 4.3 00:41:48 19° NNE 00:41:48 19° NNE 00:43:21 10° NNE
ADEOS II 4.2 00:59:17 10° NE 01:02:32 19° E 01:02:32 19° E
Resurs 1-4 Rocket 3.4 01:17:02 10° NNE 01:20:12 37° NNE 01:20:12 37° NNE
ARIANE 5 R/B 4.1 01:22:29 10° NNE 01:26:13 29° E 01:26:13 29° E
ATLAS 3B R/B 3.2 01:35:37 46° ESE 01:35:37 46° ESE 01:41:30 10° NE
NOSS 3-2 (A) 3.8 01:36:40 63° NE 01:36:40 63° NE 01:42:13 10° NE
Cosmos 2369 Rocket 3.1 01:38:09 45° E 01:38:09 45° E 01:42:41 10° NE
NOSS 3-2 (C) 3.8 01:41:45 58° E 01:41:45 58° E 01:47:29 10° NE
SL-16 R/B 3.9 01:56:12 27° NW 01:56:12 27° NW 01:59:08 10° NNW
Nadezhda 4 Rocket 4.2 01:56:22 59° ESE 01:56:54 61° E 02:02:55 10° NNE
SME Rocket 4.0 01:53:20 10° NNE 01:59:19 66° N 01:59:19 66° N
Cosmos 2278 Rocket 4.1 02:04:28 18° NW 02:04:28 18° NW 02:08:16 10° N
Lacrosse 5 2.6 02:07:00 49° NNE 02:07:19 50° NNE 02:12:14 10° ESE
USA 267 4.2 02:01:28 10° ENE 02:07:32 42° N 02:10:41 26° NW
CZ-2D R/B 3.1 02:03:09 10° N 02:06:42 37° NNW 02:06:42 37° NNW
Cosmos 1943 Rocket 2.2 02:12:39 74° N 02:12:39 74° N 02:17:44 10° NNE
CENTAUR R/B 2.5 02:13:07 69° SSE 02:13:38 73° SE 02:20:43 10° NE
IRS-1C 4.2 02:10:04 10° NNE 02:14:50 69° N 02:14:50 69° N
ATLAS 5 CENTAUR R/B 3.8 02:20:17 23° NE 02:20:17 23° NE 02:22:07 10° NE
ATLAS 5 CENTAUR R/B 3.9 02:23:19 16° NNW 02:24:37 18° NNW 02:28:08 10° NNE
Spot 4 Rocket 3.9 02:26:18 10° NNE 02:31:29 86° ESE 02:31:44 81° S
Unknown 4.3 02:33:59 53° ENE 02:33:59 53° ENE 02:37:14 10° ENE
Unknown 4.2 02:35:35 55° ENE 02:35:35 55° ENE 02:38:54 10° ENE
Unknown 4.2 02:35:54 56° ENE 02:35:54 56° ENE 02:39:14 10° ENE
Meteor 1-11 Rocket 4.5 02:31:18 10° N 02:36:47 50° ENE 02:42:07 10° SSE
Cosmos 2344 3.6 02:34:41 50° WSW 02:36:51 71° NW 02:45:24 10° NE
Unknown 4.1 02:38:45 60° NE 02:38:45 60° NE 02:42:11 10° ENE
Cosmos 220 Rocket 4.3 02:38:58 59° N 02:38:58 59° N 02:42:30 10° NNE
Unknown 4.0 02:40:27 62° NE 02:40:27 62° NE 02:43:58 10° ENE
BREEZE-M DEB (TANK) 3.7 02:41:07 40° SSE 02:41:07 40° SSE 02:48:01 10° SE
IRS-1D 4.2 02:35:15 10° N 02:39:46 41° NW 02:39:46 41° NW
Unknown 4.0 02:41:13 63° NE 02:41:13 63° NE 02:44:46 10° ENE
Unknown 3.9 02:43:37 65° NE 02:43:37 65° NE 02:47:16 10° ENE
ADEOS II 2.0 02:38:02 10° N 02:43:15 66° WNW 02:43:28 65° W
USA 238 DEB 4.3 02:42:33 37° WNW 02:44:22 44° NW 02:51:04 10° NE
USA 238 4.3 02:42:38 37° WNW 02:44:29 44° NW 02:51:11 10° NE
Unknown 3.8 02:45:09 67° NE 02:45:09 67° NE 02:48:51 10° ENE
Unknown 3.8 02:45:36 68° NE 02:45:36 68° NE 02:49:19 10° ENE
Cosmos 1340 4.4 02:42:33 10° N 02:46:02 33° ENE 02:49:30 10° SE
Unknown 3.7 02:48:15 71° NNE 02:48:15 71° NNE 02:52:05 10° ENE
Cosmos 1782 4.0 02:50:27 33° NNW 02:50:27 33° NNW 02:52:53 10° N
Timation 2 Rocket 3.7 02:43:39 10° NNW 02:49:44 87° WSW 02:55:43 10° SSE
Unknown 3.7 02:51:30 71° N 02:51:30 71° N 02:55:28 10° ENE
Unknown 3.7 02:53:07 71° N 02:53:07 71° N 02:57:09 10° ENE
Cosmos 2263 4.2 02:53:02 56° WSW 02:53:57 65° WNW 02:59:34 10° NNE
ATLAS CENTAUR R/B 4.1 02:50:36 10° NNW 02:53:59 19° NNE 02:57:10 10° ENE
Cosmos 1707 Rocket 3.7 02:54:54 58° NW 02:54:54 58° NW 02:58:51 10° N
Unknown 3.6 02:54:41 71° NNW 02:54:41 71° NNW 02:58:47 10° ENE
Unknown 3.8 02:54:57 62° NNW 02:54:57 62° NNW 02:58:54 10° ENE
Cosmos 2195 Rocket 4.4 02:52:06 30° S 02:55:29 87° E 03:01:46 10° N
Unknown 3.6 02:56:17 70° NNW 02:56:19 70° NNW 03:00:28 10° ENE
Unknown 3.6 02:59:30 66° NW 02:59:40 67° NNW 03:03:48 10° ENE
Cosmos 1733 Rocket 2.9 02:55:47 10° NNW 03:00:16 81° W 03:01:17 53° S
Cosmos 1400 Rocket 2.7 03:01:26 69° NNW 03:01:26 69° NNW 03:05:00 10° N
Unknown 4.3 03:01:04 37° N 03:01:17 37° N 03:04:36 10° ENE
Unknown 3.6 03:01:08 64° NW 03:01:21 66° NNW 03:05:28 10° ENE
Falcon 9 debris 4.3 03:01:20 37° N 03:01:34 37° N 03:04:50 10° ENE
Resurs 1-4 Rocket 3.7 02:57:57 10° NNW 03:01:16 19° NW 03:01:16 19° NW
Unknown 3.7 03:02:42 63° NW 03:02:59 65° NNW 03:07:08 10° ENE
Cosmos 1656 Rocket 3.6 03:01:25 44° SSW 03:03:20 86° WNW 03:09:02 10° NNE
Meteor 1-5 Rocket 4.1 02:58:48 10° NNW 03:04:18 90° WSW 03:09:57 10° S
Unknown 3.7 03:04:14 61° NW 03:04:35 65° NNW 03:08:44 10° ENE
ARIANE 5 R/B 2.9 03:01:24 10° N 03:06:11 41° WNW 03:06:33 41° WNW
Unknown 3.7 03:06:06 58° NW 03:06:33 63° NNW 03:10:41 10° ENE
Unknown 3.7 03:07:18 59° WNW 03:07:47 65° NNW 03:11:55 10° ENE
Aureole 2 Rocket 3.2 03:09:34 37° ENE 03:09:34 37° ENE 03:11:32 10° NNE
Unknown 3.8 03:10:08 52° WNW 03:10:44 59° NNW 03:14:48 10° ENE
Unknown 3.7 03:10:31 54° WNW 03:11:08 63° NNW 03:15:15 10° ENE
Meteor 2-9 4.5 03:06:14 10° NNW 03:11:38 69° W 03:16:57 10° S
Unknown 3.8 03:12:07 52° WNW 03:12:49 62° NNW 03:16:55 10° ENE
Cosmos 2227 Rocket 4.0 03:09:20 10° NNW 03:14:25 32° NE 03:19:28 10° ESE
Unknown 3.9 03:13:54 48° WNW 03:14:41 59° NNW 03:18:48 10° ENE
Unknown 3.8 03:15:18 48° WNW 03:16:08 60° NNW 03:20:15 10° ENE
CZ-2C R/B 3.1 03:13:48 10° N 03:17:35 47° WNW 03:17:35 47° WNW
Unknown 3.9 03:16:56 46° WNW 03:17:50 59° NNW 03:21:57 10° ENE
Unknown 4.3 03:17:29 35° NW 03:18:26 42° N 03:22:06 10° ENE
Cosmos 2219 4.1 03:14:07 10° NNW 03:19:41 51° NE 03:25:11 10° SE
Cosmos 44 Rocket 4.0 03:17:42 21° S 03:20:51 50° ESE 03:25:37 10° NE
Unknown 3.9 03:20:05 43° WNW 03:21:08 58° NNW 03:25:14 10° ENE
Cosmos 2369 Rocket 3.0 03:19:57 29° W 03:21:27 34° NW 03:26:36 10° NNE
Cosmos 1346 Rocket 2.8 03:17:35 10° NNW 03:21:44 90° S 03:25:49 10° S
ADEOS 3.7 03:17:31 10° NNE 03:22:46 78° ESE 03:27:37 12° S
Unknown 3.9 03:21:41 41° WNW 03:22:49 57° NNW 03:26:54 10° ENE
Unknown 3.9 03:23:17 40° WNW 03:24:28 56° NNW 03:28:34 10° ENE
Cosmos 2297 Rocket 3.7 03:19:34 10° NNW 03:24:51 38° NE 03:30:06 10° ESE
Cosmos 1092 Rocket 4.2 03:22:26 31° SW 03:25:03 49° WNW 03:31:02 10° N
ATLAS 3B R/B 3.0 03:22:53 30° W 03:25:56 50° NW 03:32:21 10° NE
Unknown 4.0 03:24:54 38° WNW 03:26:10 56° NNW 03:30:15 10° ENE
Cosmos 1500 3.0 03:22:53 10° NNW 03:26:37 67° W 03:28:49 23° S
Cosmos 1536 2.7 03:23:24 10° N 03:27:25 90° SW 03:31:23 10° S
Unknown 4.3 03:27:45 30° NW 03:29:10 43° N 03:32:54 10° ENE
Unknown 4.0 03:28:05 35° WNW 03:29:30 54° NNW 03:33:35 10° ENE
Unknown 4.1 03:29:57 33° WNW 03:31:28 51° NNW 03:35:32 10° ENE
Cosmos 44 3.7 03:30:33 32° W 03:32:16 45° NW 03:36:50 10° NNE
NOSS 3-2 (C) 4.3 03:29:11 24° W 03:32:17 39° NNW 03:38:44 10° NE
Unknown 4.3 03:30:55 25° NW 03:32:32 41° N 03:35:55 10° E
Unknown 4.1 03:31:30 32° WNW 03:33:05 51° NNW 03:37:10 10° ENE
Unknown 4.1 03:31:33 32° WNW 03:33:07 52° NNW 03:37:12 10° ENE
Unknown 4.4 03:32:34 25° NW 03:34:14 39° N 03:37:47 10° ENE
Unknown 4.1 03:34:27 31° WNW 03:36:09 52° NNW 03:40:12 10° ENE
Cosmos 1782 Rocket 4.2 03:32:05 10° N 03:36:25 57° ENE 03:40:45 10° SSE
Unknown 4.1 03:37:39 28° WNW 03:39:30 51° NNW 03:43:33 10° ENE
Unknown 4.1 03:38:41 22° NW 03:40:33 43° NNE 03:43:52 10° E
Unknown 4.1 03:39:15 27° WNW 03:41:09 50° NNW 03:45:13 10° ENE
H-2A R/B 2.3 03:37:46 10° NNE 03:41:38 80° ESE 03:45:28 10° SSW
Iridium 4 Rocket 3.6 03:41:10 30° WSW 03:42:19 35° W 03:46:13 10° NNW
Unknown 4.2 03:40:51 27° WNW 03:42:50 50° NNW 03:46:53 10° ENE
Unknown 4.2 03:42:28 26° WNW 03:44:32 49° NNW 03:48:35 10° ENE
Cosmos 2084 Rocket 4.3 03:44:40 28° WSW 03:44:52 28° WSW 03:48:36 10° S
Cosmos 773 Rocket 4.0 03:42:53 20° SW 03:46:28 65° WNW 03:51:37 10° NNE
FALCON 9 DEB 4.1 03:45:54 18° NW 03:48:11 44° NNE 03:51:35 10° E
Unknown 2.5 03:48:06 39° WNW 03:48:58 73° SSW 03:51:50 10° SE
USA 267 3.9 03:43:33 10° E 03:49:53 54° NNE 03:56:13 10° NW
Lacrosse 5 2.1 03:46:16 14° WNW 03:50:20 48° SW 03:55:10 10° SSE
Cosmos 1703 Rocket 3.6 03:46:44 10° S 03:51:10 84° E 03:55:35 10° N
Unknown 4.2 03:48:50 22° WNW 03:51:11 48° N 03:55:13 10° ENE
CZ-2C R/B 3.1 03:47:07 10° NNE 03:51:59 57° E 03:56:58 10° S
Unknown 4.3 03:50:27 22° WNW 03:52:52 47° N 03:56:54 10° ENE
MSX 3.9 03:48:30 10° NNE 03:54:18 86° ESE 04:00:02 10° SSW
Unknown 4.3 03:52:01 21° WNW 03:54:31 47° N 03:58:32 10° ENE
Unknown 3.0 03:52:30 21° WNW 03:54:32 77° NNE 03:57:46 10° ESE
Unknown 4.3 03:53:37 20° WNW 03:56:11 47° N 04:00:12 10° ENE
Cosmos 1943 Rocket 3.7 03:54:11 15° WNW 03:56:44 20° NW 04:00:47 10° N
Unknown 4.3 03:55:14 19° WNW 03:57:53 46° N 04:01:54 10° ENE
Cosmos 1812 3.3 03:57:55 21° SW 03:59:53 35° WNW 04:03:28 10° N
Cosmos 1743 3.6 03:56:06 10° N 03:59:57 54° ENE 04:03:46 10° SSE
CZ-4B R/B 3.8 03:56:12 10° NNE 04:00:42 59° E 04:05:07 10° S
EP 1 4.3 03:59:39 30° WSW 04:00:43 58° NW 04:03:17 10° NE
Unknown 4.3 03:58:26 18° WNW 04:01:14 46° N 04:05:15 10° ENE
Sich 1 Rocket 3.7 03:57:07 10° N 04:01:35 84° ENE 04:06:06 10° S
Starlink (trailer) 4.3 04:00:02 17° WNW 04:02:54 45° N 04:06:55 10° ENE
Cosmos 1862 Rocket 4.5 04:00:42 19° WSW 04:03:01 30° WNW 04:07:00 10° N
IDEFIX/ARIANE 42P 2.7 03:59:25 10° N 04:04:35 54° WNW 04:09:41 10° SW
Unknown 4.3 04:01:38 17° WNW 04:04:35 45° N 04:08:36 10° ENE
CENTAUR R/B 3.5 04:00:18 16° W 04:04:57 38° NNW 04:11:51 10° NE
Meteor 1-27 Rocket 4.0 03:59:26 10° SSW 04:05:06 50° WNW 04:10:42 10° N
Unknown 4.4 04:03:13 16° WNW 04:06:14 45° N 04:10:15 10° ENE
Cosmos 1553 Rocket 4.3 04:01:11 10° NNW 04:07:03 44° W 04:12:49 10° SSW
Okean 1-7 3.0 04:02:52 10° SSW 04:07:16 80° W 04:11:41 10° N
Cosmos 2242 Rocket 4.2 04:05:16 12° SW 04:09:01 37° WNW 04:13:13 10° N
ATLAS 5 CENTAUR R/B 4.3 04:07:48 10° NNW 04:11:18 18° NNE 04:15:07 10° NE
Unknown 4.4 04:09:38 14° WNW 04:12:57 44° N 04:16:57 10° ENE
Unknown 4.4 04:11:15 14° WNW 04:14:38 44° N 04:18:38 10° ENE
Unknown 4.4 04:11:33 13° WNW 04:14:58 44° N 04:18:57 10° ENE
Cosmos 1680 Rocket 3.9 04:12:36 10° S 04:17:48 68° ESE 04:23:00 10° NNE
Unknown 4.4 04:14:24 13° WNW 04:17:56 44° N 04:21:56 10° ENE
Cosmos 923 Rocket 4.1 04:13:56 10° SSW 04:19:17 88° ESE 04:24:39 10° NNE
Unknown 4.4 04:16:06 12° WNW 04:19:45 43° N 04:23:44 10° ENE
COSMOS 2441 4.4 04:15:11 10° N 04:20:00 61° WNW 04:24:49 10° SSW
Unknown 4.4 04:16:52 12° WNW 04:20:32 43° N 04:24:31 10° ENE
Cosmos 1666 3.1 04:17:33 10° NNW 04:21:05 39° W 04:24:37 10° SSW
Cosmos 2315 Rocket 4.0 04:14:52 10° N 04:21:07 88° WSW 04:27:21 10° S
Cosmos 1340 4.0 04:18:38 10° NW 04:21:27 20° W 04:24:16 10° SW
SeaSat 1 2.5 04:16:55 10° NNE 04:21:51 67° WNW 04:26:43 10° SW
ADEOS II 4.0 04:19:57 10° NNW 04:22:00 12° NW 04:24:02 10° WNW
Unknown 4.5 04:19:16 11° WNW 04:23:03 43° N 04:27:02 10° ENE
Cosmos 1315 Rocket 4.0 04:20:19 12° WSW 04:23:29 26° WNW 04:27:00 10° N
BREEZE-M DEB (TANK) 2.2 04:20:11 13° W 04:23:41 82° NNW 04:26:02 10° ENE
BREEZE-M DEB (TANK) 3.0 04:15:58 11° W 04:24:24 69° S 04:27:26 10° ESE
Unknown 4.5 04:20:48 11° WNW 04:24:38 43° N 04:28:37 10° ENE
Unknown 4.5 04:21:15 11° WNW 04:25:07 43° N 04:29:05 10° ENE
Meteor 2-13 Rocket 4.5 04:19:37 10° SSW 04:25:44 66° WNW 04:31:54 10° N
Unknown 4.5 04:23:54 10° WNW 04:27:52 43° N 04:31:51 10° ENE
CZ-4B R/B 3.6 04:25:47 10° N 04:29:26 70° WNW 04:33:03 10° SSW
COSMO-SKYMED 1 2.9 04:25:42 10° SSE 04:30:00 73° ENE 04:34:22 10° N
Unknown 4.5 04:27:18 10° WNW 04:31:17 43° N 04:35:16 10° ENE
Cosmos 2056 Rocket 3.8 04:27:27 10° NNW 04:32:46 76° ENE 04:37:57 10° SSE
Unknown 4.5 04:29:01 10° WNW 04:32:59 43° N 04:36:58 10° ENE
ATLAS CENTAUR R/B 1.6 04:29:11 10° NW 04:33:43 78° NE 04:37:52 10° SE
Unknown 4.5 04:30:39 10° WNW 04:34:31 42° N 04:38:23 10° ENE
Unknown 4.5 04:30:39 10° WNW 04:34:37 43° N 04:38:36 10° ENE
Unknown 4.5 04:32:20 10° WNW 04:36:19 43° N 04:40:17 10° ENE
Okean 2 Rocket 3.1 04:33:06 10° NNW 04:37:38 74° W 04:42:07 10° S
Meteor 1-31 Rocket 2.9 04:34:09 10° N 04:38:00 55° WNW 04:41:48 10° SSW
Unknown 3.5 04:35:24 10° WNW 04:38:54 66° NNE 04:42:25 10° ESE
Falcon 9 debris 3.3 04:35:25 10° WNW 04:38:55 75° NNE 04:42:24 10° ESE
Unknown 4.5 04:35:42 10° WNW 04:39:40 43° N 04:43:39 10° ENE
PSLV R/B 3.8 04:37:05 10° NNE 04:41:08 86° WNW 04:45:02 10° SSW
Unknown 4.5 04:37:24 10° WNW 04:41:22 43° N 04:45:19 10° ENE
CZ-4B R/B 4.5 04:37:04 10° NNE 04:42:23 46° E 04:47:35 10° S
Unknown 4.5 04:39:02 10° WNW 04:43:01 43° N 04:47:00 10° ENE
Cosmos 2082 3.9 04:37:53 10° NNW 04:43:37 82° ENE 04:49:16 10° SSE
Cosmos 1624 Rocket 4.0 04:38:47 10° NNW 04:44:02 86° WSW 04:49:19 10° SSE
Unknown 4.5 04:40:39 10° WNW 04:44:37 43° N 04:48:36 10° ENE
